Location: Unspecified
(0.0000°N, 0.0000°E)
Time: 22:37:37
(UTC+00:00)

Interbol-2 - Visible Passes

Search period start: 10 October 2024 00:00
Search period end: 20 October 2024 00:00
Orbit: 761 x 19211 km, 62.8° (Epoch: 10 October)

Date Brightness Start Highest point End Pass type
(mag) Time Alt. Az. Time Alt. Az. Time Alt. Az.
10 Oct 10.8 03:22:12 34° WNW 03:24:46 34° NW 06:30:05 10° NNE visible
11 Oct 10.8 02:32:19 47° NW 02:32:19 47° NW 05:09:50 10° NNE visible
12 Oct 10.8 01:42:26 56° NNW 01:42:26 56° NNW 04:02:33 10° NNE visible
13 Oct 10.8 00:52:33 57° N 00:52:33 57° N 02:56:55 10° NNE visible
14 Oct 9.9 00:02:40 50° NNE 00:02:40 50° NNE 01:50:31 10° NNE visible
14 Oct 9.8 23:12:47 39° NE 23:12:47 39° NE 00:41:32 10° NNE visible
15 Oct 10.8 07:14:24 10° NNW 09:06:24 26° NE 09:26:26 10° E visible
15 Oct 9.8 22:22:52 27° NE 22:22:52 27° NE 23:27:20 10° NNE visible
16 Oct 11.3 04:10:25 16° WNW 04:26:40 17° NW 08:25:50 10° ENE visible
16 Oct 9.9 21:32:58 15° ENE 21:32:58 15° ENE 22:01:22 10° NE visible
17 Oct 11.2 03:20:30 27° NW 03:20:36 27° NW 07:06:00 10° NE visible
18 Oct 11.2 02:30:34 38° NW 02:30:34 38° NW 05:12:15 10° NNE visible
19 Oct 10.2 01:40:37 47° NNW 01:40:37 47° NNW 04:00:36 10° NNE visible
